This is the latest recevied weather packets stored in our database for station/object HB9FHL-13. If no packets are shown the sender has not sent any weather packets the latest 10 day(s).
| Time | Temp. | Humidity | Pressure | Rain* | Wind** | Luminosity | Snow |
|---|---|---|---|---|---|---|---|
| 1777484576 | 14.44° C | - | 1019.4 hPa | 2.54 mm | - | - | - |
| 1777484276 | 14.44° C | - | 1016.9 hPa | 2.54 mm | - | - | - |
| 1777484017 | 15° C | - | 1014.7 hPa | 2.54 mm | - | - | - |
| 1777483975 | 15° C | - | 1014.7 hPa | 2.54 mm | - | - | - |
| 1777483675 | 15° C | - | 1017.9 hPa | 2.54 mm | - | - | - |
| 1777483374 | 15° C | - | 1018.2 hPa | 2.54 mm | - | - | - |
| 1777483073 | 15° C | - | 1011.9 hPa | 2.54 mm | - | - | - |
| 1777482774 | 15° C | - | 1019.8 hPa | 2.54 mm | - | - | - |
| 1777482472 | 14.44° C | - | 1012.3 hPa | 2.54 mm | - | - | - |
| 1777482171 | 14.44° C | - | 1026.9 hPa | 2.54 mm | - | - | - |
| 1777481870 | 16.67° C | - | 1019.3 hPa | 2.54 mm | - | - | - |
| 1777481569 | 16.11° C | - | 1018.1 hPa | 2.54 mm | - | - | - |
| 1777481269 | 14.44° C | - | 1015.3 hPa | 2.54 mm | - | - | - |
| 1777480968 | 15.56° C | - | 1021.5 hPa | 2.54 mm | - | - | - |
| 1777480668 | 15.56° C | - | 1027.2 hPa | 2.54 mm | - | - | - |
| 1777480367 | 14.44° C | - | 1016.8 hPa | 2.54 mm | - | - | - |
| 1777480067 | 14.44° C | - | 1022.3 hPa | 2.54 mm | - | - | - |
| 1777479764 | 15° C | - | 1015.3 hPa | 2.54 mm | - | - | - |
| 1777479464 | 15° C | - | 1019.3 hPa | 2.54 mm | - | - | - |
| 1777479163 | 16.11° C | - | 1006.2 hPa | 2.54 mm | - | - | - |
| 1777478863 | 16.11° C | - | 1020.7 hPa | 2.54 mm | - | - | - |
| 1777478562 | 15° C | - | 1028.8 hPa | 2.54 mm | - | - | - |
| 1777478263 | 15° C | - | 1011.4 hPa | 2.54 mm | - | - | - |
| 1777477962 | 16.11° C | - | 1023 hPa | 2.54 mm | - | - | - |
| 1777477662 | 15.56° C | - | 1014.6 hPa | 2.54 mm | - | - | - |
* Rain since midnight (hover to see other rain measurements)
** Current wind speed in m/s (hover to see current wind gust speed)